239ALFEROV (RS61S)

Last updated on Mon Sep 21 2026 00:03:15 GMT+0000 (Coordinated Universal Time)

1 64881U 25155F 26263.57691666 .00011281 00000+0 33071-3 0 9999 2 64881 97.4662 233.8383 0006653 177.2130 182.9151 15.35343545 95430
UTC large
Height (km)
Speed (km/s)
/
Latitude / Longitude
Inclination (degrees)
Orbital Period (minutes)
Azimuth
Elevation
Range (km)
Doppler Factor

Next 0 passes for location: London (51.5072 / 0.1276)

No passes found over London.
239ALFEROV (RS61S)